x

La Perouse Bank (46206) Wave Buoy

11:00 - Mon 22nd May 2017 All times are PDT. -7 hours from GMT.

  • Sig Wave height 6.6ft
  • Peak Period 10s
  • Wind
    9mph, 13mph gusts
  • Sea Temp 54°f
  • Luft Temp 55°f
  • Sea Pressure 1022.3mb
  • La Perouse Bank
  • La Perouse Bank

More Historic Weather Station data

Upgrade to MSW Pro to gain access to the past 30 days of data for over 8000 Wavebouys and Weather Stations around the globe.

Join Pro

Comparision Forecast

View Surf forecast
   
Mo 05/22 11:00 6.5ft 10s 9 13 mph 1022.3mb 54f 55f
10:00 6.5ft 10s 4 9 mph 1022mb 54f 55f
9:00 6ft 10s 7 9 mph 1022.3mb 54f 55f
8:00 6ft 10s 2 4 mph 1021.9mb 54f 55f
7:00 6ft 10s 9 11 mph 1022mb 54f 55f
6:00 5.5ft 10s 16 20 mph 1022.4mb 54f 55f
5:00 5.5ft 10s 13 16 mph 1022.4mb 54f 55f
4:00 5.5ft 10s 9 13 mph 1022.3mb 54f 55f
3:00 5ft 10s 11 13 mph 1022.5mb 54f 55f
2:00 5.5ft 10s 13 16 mph 1022.5mb 54f 55f
1:00 5ft 10s 13 18 mph 1022.6mb 54f 55f
12:00 5ft 10s 16 18 mph 1022.7mb 53f 55f
So 05/21 11:00 5ft 10s 16 18 mph 1022.8mb 54f 55f
10:00 5ft 11s 18 22 mph 1023mb 54f 55f
9:00 4.5ft 11s 18 20 mph 1023mb 54f 55f
8:00 4.5ft 11s 18 20 mph 1023.1mb 54f 55f
7:00 3.5ft 10s 13 16 mph 1023.4mb 54f 55f
6:00 4ft 11s 13 16 mph 1024mb 54f 53f
5:00 3.5ft 10s 18 20 mph 1024.5mb 54f 52f
4:00 3ft 10s 11 13 mph 1024.8mb 54f 54f
3:00 3ft 10s 11 16 mph 1025.2mb 54f 54f
2:00 3ft 10s 13 16 mph 1025.8mb 54f 53f
1:00 3.5ft 10s 13 16 mph 1026mb 54f 53f
12:00 3.5ft 11s 4 9 mph 1025.8mb 53f 52f
11:00 3.5ft 10s 7 9 mph 1025.9mb 53f 52f
10:00 4ft 10s 9 11 mph 1025.7mb 53f 52f
9:00 3.5ft 10s 9 11 mph 1025.6mb 53f 52f
8:00 4ft 10s 11 13 mph 1025.4mb 53f 52f
7:00 4.5ft 10s 11 13 mph 1025.2mb 53f 51f
6:00 4.5ft 11s 11 13 mph 1025mb 53f 51f
5:00 4.5ft 10s 13 16 mph 1024.9mb 53f 51f
4:00 4.5ft 11s 13 16 mph 1024.8mb 53f 51f
3:00 4.5ft 5s 13 18 mph 1024.8mb 53f 51f
2:00 5ft 5s 16 18 mph 1024.7mb 53f 51f
1:00 5ft 11s 18 20 mph 1024.5mb 53f 51f
12:00 5ft 10s 18 20 mph 1024.5mb 54f 51f
Sa 05/20 11:00 5ft 10s 18 22 mph 1024.2mb 54f 51f
10:00 5ft 10s 18 22 mph 1024mb 54f 51f
9:00 5ft 11s 20 25 mph 1024mb 54f 51f
8:00 5ft 10s 18 22 mph 1023.8mb 54f 51f
7:00 5ft 10s 20 22 mph 1023.8mb 54f 51f
6:00 5ft 11s 18 20 mph 1024.1mb 55f 52f
5:00 5ft 11s 16 20 mph 1024.4mb 55f 53f
4:00 4.5ft 12s 16 18 mph 1024.6mb 54f 53f
3:00 4.5ft 11s 16 18 mph 1024.8mb 54f 53f
2:00 4.5ft 10s 13 18 mph 1024.7mb 54f 53f
1:00 4.5ft 10s 13 16 mph 1024.8mb 54f 53f
12:00 4.5ft 9s 9 11 mph 1024.4mb 53f 52f
11:00 4.5ft 8s 4 9 mph 1024mb 53f 51f
10:00 4ft 9s 4 9 mph 1023.8mb 53f 51f
9:00 4.5ft 12s 9 11 mph 1023.4mb 53f 51f
8:00 4.5ft 8s 13 16 mph 1023.1mb 53f 51f
7:00 4.5ft 12s 11 13 mph 1022.5mb 53f 51f
6:00 4.5ft 12s 11 13 mph 1022.4mb 53f 52f
5:00 4.5ft 9s 13 16 mph 1021.9mb 53f 51f
4:00 4.5ft 12s 13 18 mph 1021.8mb 53f 52f
3:00 4ft 12s 11 13 mph 1021.6mb 53f 53f
2:00 4ft 12s 11 13 mph 1021.4mb 53f 53f
1:00 3.5ft 12s 9 11 mph 1021.3mb 53f 53f
12:00 3.5ft 12s 9 11 mph 1021.2mb 54f 53f
Fr 05/19 11:00 3.5ft 9s 9 9 mph 1021.4mb 54f 53f
10:00 3.5ft 12s 4 11 mph 1021.2mb 54f 53f
9:00 3.5ft 9s 4 7 mph 1020.9mb 53f 53f
8:00 3.5ft 9s 2 4 mph 1020.7mb 54f 54f
7:00 3.5ft 9s 2 4 mph 1020.8mb 55f 54f
5:00 3.5ft 9s 2 4 mph 1021.2mb 55f 54f
4:00 3.5ft 8s 2 2 mph 1021.5mb 55f 55f
3:00 3.5ft 8s 2 4 mph 1021.5mb 54f 54f
2:00 3.5ft 8s 2 4 mph 1021.7mb 54f 54f
1:00 3.5ft 8s 2 4 mph 1021.6mb 54f 54f
12:00 3.5ft 9s 2 7 mph 1021.6mb 53f 53f
11:00 3.5ft 9s 2 4 mph 1021.4mb 53f 53f
10:00 3.5ft 9s 2 4 mph 1021.2mb 53f 53f
9:00 3.5ft 9s  -  2 mph 1021mb 52f 53f
8:00 3.5ft 8s  -  0 mph 1020.9mb 52f 52f
7:00 3.5ft 8s  -  0 mph 1020.7mb 53f 52f
6:00 3.5ft 8s  -  0 mph 1020.5mb 53f 52f
5:00 3.5ft 9s  -  2 mph 1020.3mb 53f 51f
4:00 3ft 10s  -  0 mph 1020.5mb 53f 52f
3:00 3.5ft 9s  -  0 mph 1020.5mb 53f 52f
2:00 3.5ft 10s  -  2 mph 1020.6mb 53f 51f
1:00 3.5ft 6s  -  0 mph 1021.1mb 53f 52f
12:00 3.5ft 9s  -  0 mph 1021mb 53f 52f
Do 05/18 11:00 3.5ft 9s  -  0 mph 1021.1mb 53f 52f
10:00 3ft 9s  -  0 mph 1021mb 53f 52f
9:00 3.5ft 9s  -  2 mph 1020.8mb 53f 52f
8:00 3ft 9s 2 7 mph 1020.7mb 53f 52f